Regional Weather Roundup
Issued by NWS

Home | Current Version | Previous Version | Graphics & Text | Print | Product List | Glossary On
Versions: 1 2 3 4 5 6 7 8 9 10 11 12 13 14 15 16 17 18 19 20 21 22 23 24 25 26 27 28 29 30 31 32 33 34 35 36 37 38 39 40 41 42 43 44 45 46 47 48 49 50
000
ASUS43 KDMX 050908
RWRIA

WEATHER ROUNDUP FOR IOWA
NATIONAL WEATHER SERVICE DES MOINES IA
400 AM CDT THU MAY 05 2016

NOTE: "FAIR" INDICATES FEW OR NO CLOUDS BELOW 12,000 FEET WITH NO
SIGNIFICANT WEATHER AND/OR OBSTRUCTIONS TO VISIBILITY.

* - THESE STATIONS ARE NOT NWS STATIONS...THUS NOT UNDER NWS
QUALITY CONTROL.  THEY ALSO DO NOT REPORT WEATHER SUCH
AS PRECIPITATION OR FOG.

IAZ001>003-012>014-020>022-031>034-043>046-051000-
   NORTHWEST IOWA

CITY           SKY/WX    TMP DP  RH WIND       PRES   REMARKS
CARROLL *      CLOUDY    41  37  87 W5        30.02R
CHEROKEE *     CLEAR     39  39 100 CALM      30.02S
DENISON *      CLEAR     41  39  93 CALM      30.01R
LE MARS *      CLEAR     41  39  93 CALM      30.04R
ORANGE CITY *  CLEAR     52  34  50 CALM      30.02S
SHELDON *      CLEAR     39  36  87 CALM      30.01R
SIOUX CITY     CLEAR     43  36  76 NW3       30.03S
SPENCER        CLEAR     38  35  89 W6        30.02S WCI  33
STORM LAKE *   CLEAR     50  34  53 N3        30.02S
$$

IAZ055>058-069>071-079>083-090>094-051000-
   SOUTHWEST IOWA

CITY           SKY/WX    TMP DP  RH WIND       PRES   REMARKS
ATLANTIC *     CLEAR     43  39  87 N6        30.02R
AUDUBON *      CLEAR     39  36  87 CALM      30.03R
CLARINDA *       N/A    N/A N/A N/A MISG        N/A
COUNCIL BLFS * CLEAR     52  39  62 NW5       30.02R
CRESTON *      CLEAR     48  36  61 N7        30.02R
HARLAN  *      CLEAR     43  39  87 CALM      30.05R
LAMONI         CLEAR     47  37  68 N6        29.99S
RED OAK *      CLEAR     43  39  87 CALM      30.02R
SHENANDOAH *   CLEAR     46  43  87 SW3       30.02S
$$

IAZ047>049-059>061-072>074-084-051000-
   CENTRAL IOWA

CITY           SKY/WX    TMP DP  RH WIND       PRES   REMARKS
AMES           CLEAR     43  35  73 N5        30.01R
ANKENY *       CLEAR     39  37  93 CALM      30.01R
BOONE *        CLEAR     46  32  57 N6        30.00R
CHARITON *     CLEAR     46  37  71 NW6       29.99R
DES MOINES     CLEAR     46  37  71 CALM      30.00R
GRINNELL*      CLEAR     46  30  53 N8        30.00R
KNOXVILLE *    CLEAR     48  34  57 N7        29.98R
MARSHALLTOWN   CLEAR     40  30  67 N5        29.99R
NEWTON *       CLEAR     45  32  61 N5        30.00R
PELLA *        CLEAR     43  32  65 N3        30.00R
PERRY *          N/A     43  39  87 W5        30.01R
$$

IAZ004>006-015-016-023>025-035-036-051000-
   NORTH CENTRAL IOWA

CITY           SKY/WX    TMP DP  RH WIND       PRES   REMARKS
ALGONA *       PTCLDY    45  34  65 NE3       30.02R
CLARION *      CLEAR     37  30  75 N5        30.02R WCI  34
ESTHERVILLE    CLEAR     40  35  83 NW7       30.01S
FORT DODGE *   CLEAR     37  32  81 CALM      30.00S
MASON CITY     CLEAR     38  28  67 CALM      30.03R
FOREST CITY *  CLEAR     34  32  93 CALM      30.02R
WEBSTER CITY * CLEAR     39  32  75 CALM      30.00R
IOWA FALLS *     N/A     43  30  61 CALM      30.02R
$$

IAZ007>011-017>019-026>030-037>042-050>054-066-051000-
   NORTHEAST IOWA

CITY           SKY/WX    TMP DP  RH WIND       PRES   REMARKS
CEDAR RAPIDS   CLEAR     40  32  73 N3        29.97R
CHARLES CITY * CLEAR     43  25  49 N7        30.02R
CLINTON *      CLEAR     40  36  86 NE6       29.97R
DECORAH *      CLEAR     39  30  70 CALM      29.99R
DUBUQUE        CLEAR     42  33  70 NE8       29.97R
MONTICELLO *   CLEAR     37  32  81 CALM      29.98R
OELWEIN *      CLEAR     39  28  65 NW6       30.00R WCI  35
WATERLOO       CLEAR     37  32  82 CALM      30.00R
$$

IAZ064-065-067-068-078-051000-
   EAST CENTRAL IOWA

CITY           SKY/WX    TMP DP  RH WIND       PRES   REMARKS
DAVENPORT      CLEAR     39  34  82 N7        29.96R WCI  34
IOWA CITY      CLEAR     47  31  53 N6        29.99R
MT. PLEASANT * CLEAR     45  36  70 N7        29.96R
MUSCATINE *    CLEAR     41  34  75 N5        29.97R
QUAD CITIES    CLEAR     40  34  79 CALM      29.95R
$$

IAZ062-063-075>077-085>089-095>099-051000-
   SOUTHEAST IOWA

CITY           SKY/WX    TMP DP  RH WIND       PRES   REMARKS
BURLINGTON     CLEAR     41  36  82 N5        29.95R
FAIRFIELD *    CLEAR     39  32  75 N7        29.97R WCI  34
FORT MADISON * CLEAR     43  36  75 N5        29.96R
KEOKUK *       CLEAR     46  36  66 N5        29.95R
OSKALOOSA *      N/A     41  32  70 N7        29.99R
OTTUMWA        CLEAR     40  32  73 N7        29.98R
WASHINGTON *   CLEAR     43  34  70 N9        29.98R
$$

ABBREVIATIONS USED IN REMARKS
   TC - TEMPERATURES IN CELSIUS
  WCI - WIND CHILL INDEX
   HX - HEAT INDEX
  VSB - VISIBILITY
$$





USA.gov is the U.S. government's official web portal to all federal, state and local government web resources and services.